Location: Banska Bystrica
(48.7333°N, 19.1500°E)
Time: 05:52:02
(UTC+01:00)

ISS - Visible Passes

Search period start: 23 February 2018 00:00
Search period end: 05 March 2018 00:00
Orbit: 402 x 407 km, 51.6° (Epoch: 23 February)

Date Brightness Start Highest point End Pass type
(mag) Time Alt. Az. Time Alt. Az. Time Alt. Az.
27 Feb -1.2 05:33:37 10° S 05:36:00 19° SE 05:38:22 10° E visible
28 Feb -0.8 04:42:51 10° SSE 04:43:56 11° SE 04:45:03 10° ESE visible
01 Mar -2.4 05:24:35 10° SW 05:27:37 35° SSE 05:30:40 10° E visible
02 Mar -1.7 04:34:05 17° S 04:35:28 22° SE 04:38:05 10° E visible
03 Mar -0.9 03:44:04 13° ESE 03:44:04 13° ESE 03:45:05 10° ESE visible
03 Mar -3.6 05:16:44 15° SW 05:19:19 66° SSE 05:22:35 10° ENE visible
04 Mar -3.0 04:26:36 39° S 04:27:03 42° SSE 04:30:10 10° ENE visible
